• în România
  • Lista ţărilor
  • Pe 7 zile
  • Temperatura apei
  • Hartă satelitară
  • Meteo pe hartă
  • Widget-uri
  • user-avatar
    Intrare

    Meteo pe oră la Neuquén

    Astăzi, 20 Noiembrie, Luni

    Timp Temperatura Precipitaţii Vânt Presiune Umiditate
    00:00 +16°C° 0 mm 9 m/s 729 mmHg 20%
    01:00 +15°C° 0 mm 9 m/s 729 mmHg 22%
    02:00 +13°C° 0 mm 8 m/s 730 mmHg 23%
    03:00 +13°C° 0 mm 8 m/s 730 mmHg 25%
    04:00 +12°C° 0 mm 7 m/s 730 mmHg 26%
    05:00 +14°C° 0 mm 7 m/s 731 mmHg 24%
    06:00 +15°C° 0 mm 7 m/s 732 mmHg 23%
    07:00 +16°C° 0 mm 6 m/s 732 mmHg 21%
    08:00 +17°C° 0 mm 5 m/s 733 mmHg 18%
    09:00 +19°C° 0 mm 5 m/s 733 mmHg 15%
    10:00 +20°C° 0 mm 4 m/s 733 mmHg 12%
    11:00 +21°C° 0 mm 4 m/s 733 mmHg 11%
    12:00 +22°C° 0 mm 5 m/s 732 mmHg 10%
    13:00 +23°C° 0 mm 5 m/s 732 mmHg 9%
    14:00 +25°C° 0 mm 5 m/s 732 mmHg 8%
    15:00 +25°C° 0 mm 5 m/s 732 mmHg 8%
    16:00 +26°C° 0 mm 5 m/s 732 mmHg 8%
    17:00 +25°C° 0 mm 4 m/s 732 mmHg 9%
    18:00 +23°C° 0 mm 4 m/s 732 mmHg 10%
    19:00 +22°C° 0 mm 3 m/s 732 mmHg 11%
    20:00 +21°C° 0 mm 3 m/s 733 mmHg 12%
    21:00 +21°C° 0 mm 3 m/s 734 mmHg 14%
    22:00 +20°C° 0 mm 3 m/s 734 mmHg 15%
    23:00 +19°C° 0 mm 3 m/s 734 mmHg 19%

    Mâine, 21 Noiembrie, Marţi

    Timp Temperatura Precipitaţii Vânt Presiune Umiditate
    00:00 +18°C° 0 mm 4 m/s 734 mmHg 24%
    01:00 +16°C° 0 mm 5 m/s 734 mmHg 28%
    02:00 +16°C° 0 mm 5 m/s 734 mmHg 29%
    03:00 +15°C° 0 mm 5 m/s 735 mmHg 31%
    04:00 +15°C° 0 mm 5 m/s 735 mmHg 32%
    05:00 +16°C° 0 mm 5 m/s 735 mmHg 30%
    06:00 +17°C° 0 mm 5 m/s 735 mmHg 27%
    07:00 +19°C° 0 mm 6 m/s 735 mmHg 25%
    08:00 +21°C° 0 mm 6 m/s 735 mmHg 23%
    09:00 +22°C° 0 mm 6 m/s 735 mmHg 20%
    10:00 +24°C° 0 mm 6 m/s 735 mmHg 18%
    11:00 +24°C° 0 mm 6 m/s 735 mmHg 17%
    12:00 +26°C° 0 mm 6 m/s 734 mmHg 15%
    13:00 +27°C° 0 mm 6 m/s 734 mmHg 14%
    14:00 +28°C° 0 mm 6 m/s 733 mmHg 13%
    15:00 +28°C° 0 mm 6 m/s 733 mmHg 13%
    16:00 +28°C° 0 mm 6 m/s 733 mmHg 12%
    17:00 +27°C° 0 mm 5 m/s 733 mmHg 13%
    18:00 +27°C° 0 mm 4 m/s 733 mmHg 14%
    19:00 +26°C° 0 mm 3 m/s 733 mmHg 14%
    20:00 +25°C° 0 mm 3 m/s 733 mmHg 15%
    21:00 +24°C° 0 mm 3 m/s 733 mmHg 17%
    22:00 +24°C° 0 mm 3 m/s 733 mmHg 18%
    23:00 +22°C° 0 mm 4 m/s 733 mmHg 21%

    Poimâine, 22 Noiembrie, Miercuri

    Timp Temperatura Precipitaţii Vânt Presiune Umiditate
    00:00 +21°C° 0 mm 4 m/s 732 mmHg 25%
    01:00 +20°C° 0 mm 5 m/s 732 mmHg 29%
    02:00 +20°C° 0 mm 5 m/s 732 mmHg 32%
    03:00 +19°C° 0 mm 5 m/s 731 mmHg 35%
    04:00 +17°C° 0 mm 5 m/s 731 mmHg 38%
    05:00 +20°C° 0 mm 6 m/s 731 mmHg 36%
    06:00 +21°C° 0 mm 6 m/s 731 mmHg 33%
    07:00 +22°C° 0 mm 6 m/s 731 mmHg 30%
    08:00 +24°C° 0 mm 6 m/s 731 mmHg 27%
    09:00 +26°C° 0 mm 6 m/s 731 mmHg 24%
    10:00 +27°C° 0 mm 6 m/s 731 mmHg 21%
    11:00 +28°C° 0 mm 6 m/s 730 mmHg 18%
    12:00 +30°C° 0 mm 6 m/s 730 mmHg 16%
    13:00 +32°C° 0 mm 6 m/s 729 mmHg 14%
    14:00 +32°C° 0 mm 7 m/s 728 mmHg 12%
    15:00 +32°C° 0 mm 7 m/s 728 mmHg 11%
    16:00 +33°C° 0 mm 8 m/s 727 mmHg 10%
    17:00 +32°C° 0 mm 7 m/s 727 mmHg 10%
    18:00 +30°C° 0 mm 6 m/s 728 mmHg 11%
    19:00 +28°C° 0 mm 6 m/s 728 mmHg 11%
    20:00 +27°C° 0 mm 7 m/s 728 mmHg 14%
    21:00 +24°C° 0 mm 8 m/s 729 mmHg 16%
    22:00 +23°C° 0 mm 9 m/s 729 mmHg 19%
    23:00 +22°C° 0 mm 8 m/s 729 mmHg 20%

    23 Noiembrie, Joi

    Timp Temperatura Precipitaţii Vânt Presiune Umiditate
    00:00 +21°C° 0 mm 8 m/s 729 mmHg 22%
    01:00 +20°C° 0 mm 8 m/s 729 mmHg 23%
    02:00 +20°C° 0 mm 8 m/s 729 mmHg 25%
    03:00 +18°C° 0 mm 8 m/s 730 mmHg 27%
    04:00 +17°C° 0 mm 7 m/s 730 mmHg 28%
    05:00 +18°C° 0 mm 8 m/s 731 mmHg 26%
    06:00 +20°C° 0 mm 8 m/s 731 mmHg 24%
    07:00 +19°C° 0 mm 9 m/s 732 mmHg 22%
    08:00 +21°C° 0 mm 8 m/s 733 mmHg 19%
    09:00 +22°C° 0 mm 8 m/s 733 mmHg 16%
    10:00 +23°C° 0 mm 7 m/s 733 mmHg 14%
    11:00 +24°C° 0 mm 6 m/s 733 mmHg 13%
    12:00 +24°C° 0 mm 6 m/s 733 mmHg 11%
    13:00 +26°C° 0 mm 5 m/s 733 mmHg 10%
    14:00 +26°C° 0 mm 4 m/s 733 mmHg 10%
    15:00 +26°C° 0 mm 4 m/s 732 mmHg 10%
    16:00 +27°C° 0 mm 3 m/s 732 mmHg 9%
    17:00 +26°C° 0 mm 4 m/s 732 mmHg 11%
    18:00 +25°C° 0 mm 5 m/s 732 mmHg 13%
    19:00 +23°C° 0 mm 6 m/s 732 mmHg 15%
    20:00 +22°C° 0 mm 7 m/s 732 mmHg 20%
    21:00 +20°C° 0 mm 7 m/s 732 mmHg 24%
    22:00 +18°C° 0 mm 8 m/s 732 mmHg 28%
    23:00 +18°C° 0 mm 8 m/s 732 mmHg 29%

    24 Noiembrie, Vineri

    Timp Temperatura Precipitaţii Vânt Presiune Umiditate
    00:00 +17°C° 0 mm 8 m/s 732 mmHg 30%
    01:00 +17°C° 0 mm 7 m/s 731 mmHg 31%
    02:00 +16°C° 0 mm 7 m/s 731 mmHg 32%
    03:00 +16°C° 0 mm 6 m/s 731 mmHg 33%
    04:00 +15°C° 0 mm 6 m/s 731 mmHg 35%
    05:00 +17°C° 0 mm 7 m/s 731 mmHg 34%
    06:00 +18°C° 0 mm 7 m/s 732 mmHg 33%
    07:00 +20°C° 0 mm 7 m/s 732 mmHg 31%
    08:00 +22°C° 0 mm 6 m/s 732 mmHg 28%
    09:00 +25°C° 0 mm 5 m/s 731 mmHg 24%
    10:00 +27°C° 0 mm 4 m/s 731 mmHg 20%
    11:00 +28°C° 0 mm 5 m/s 730 mmHg 17%
    12:00 +30°C° 0 mm 5 m/s 730 mmHg 14%
    13:00 +32°C° 0 mm 6 m/s 729 mmHg 11%
    14:00 +32°C° 0 mm 6 m/s 729 mmHg 10%
    15:00 +33°C° 0 mm 6 m/s 728 mmHg 9%
    16:00 +33°C° 0 mm 6 m/s 728 mmHg 8%
    17:00 +32°C° 0 mm 7 m/s 728 mmHg 10%
    18:00 +30°C° 0 mm 7 m/s 728 mmHg 11%
    19:00 +29°C° 0 mm 8 m/s 729 mmHg 12%
    20:00 +28°C° 0 mm 9 m/s 729 mmHg 15%
    21:00 +26°C° 0 mm 10 m/s 730 mmHg 17%
    22:00 +24°C° 0 mm 11 m/s 730 mmHg 20%
    23:00 +23°C° 0 mm 10 m/s 730 mmHg 21%

    25 Noiembrie, Sâmbătă

    Timp Temperatura Precipitaţii Vânt Presiune Umiditate
    00:00 +22°C° 0 mm 9 m/s 730 mmHg 22%
    01:00 +21°C° 0 mm 9 m/s 730 mmHg 23%
    02:00 +20°C° 0 mm 8 m/s 731 mmHg 25%
    03:00 +20°C° 0 mm 7 m/s 731 mmHg 27%
    04:00 +18°C° 0 mm 7 m/s 732 mmHg 29%
    05:00 +20°C° 0 mm 7 m/s 732 mmHg 28%
    06:00 +21°C° 0 mm 6 m/s 733 mmHg 27%
    07:00 +22°C° 0 mm 6 m/s 733 mmHg 26%
    08:00 +23°C° 0 mm 6 m/s 733 mmHg 23%
    09:00 +26°C° 0 mm 6 m/s 732 mmHg 21%
    10:00 +27°C° 0 mm 6 m/s 732 mmHg 19%
    11:00 +29°C° 0 mm 6 m/s 731 mmHg 18%
    12:00 +30°C° 0 mm 7 m/s 730 mmHg 17%
    13:00 +32°C° 0 mm 8 m/s 730 mmHg 17%
    14:00 +33°C° 0 mm 9 m/s 729 mmHg 17%
    15:00 +33°C° 0 mm 10 m/s 729 mmHg 17%
    16:00 +33°C° 0 mm 12 m/s 728 mmHg 16%
    17:00 +31°C° 0 mm 12 m/s 728 mmHg 18%
    18:00 +29°C° 0 mm 12 m/s 729 mmHg 19%
    19:00 +27°C° 0 mm 12 m/s 729 mmHg 21%
    20:00 +26°C° 0 mm 12 m/s 729 mmHg 24%
    21:00 +23°C° 0 mm 12 m/s 730 mmHg 28%
    22:00 +22°C° 0 mm 12 m/s 730 mmHg 31%
    23:00 +21°C° 0 mm 12 m/s 729 mmHg 32%
    Arată mai mult